Über Yixian-A (R)
Group: 3 satellites
Beschreibung wird geladen...
Live-Position
3D-Globus wird geladen...
Nächste Überflüge
Höhenverlauf
Altitude vs Time
uPlot chart will show altitude changes over time
Zweizeiliger Elementsatz
1 66999U 25292G 25345.87534528 .00001612 00000-0 11819-3 0 9993
2 66999 97.6571 58.4362 0014449 282.8480 77.1132 15.04867239 262
Epoch: 11. Dez. 2025 •
Age: 57 hours
Aktueller Status
Höhe 565.7 km
Geschwindigkeit 7.58 km/s
Subsatellitenpunkt -55.74°S,
57.66°E
Startdatum 10. Dez. 2025
Alter 4 days
Typ other
Technische Details
Klassifizierung Payload
Masse 5.00 kg
Trockenmasse 5.00 kg
Gesamtmasse 5.00 kg
Länge 0.30 m
Durchmesser 0.10 m
Spannweite 0.30 m
Form Box+2 pan
Hersteller ZHONG
Bus-Typ Cubesat 3U
Phasenstatus In Orbit
Besitzer/Staat ZHONG/CN
Große Konstellationen
Loading constellations...